Location: Cortos
(40.7190°N, 4.5893°W)
Time: 08:34:15
(UTC+00:00)

Cosmos 44 - Pass Details

Date: 05 July 2020
Orbit: 587 x 775 km, 65.1° (Epoch: 07 August)

Event Time Altitude Azimuth Distance (km) Brightness Sun altitude
Exits shadow 23:43:37 60° 22° (NNE) 682 3.4 -26.0°
Drops below altitude 10° 23:47:15 10° 31° (NNE) 1,955 6.2 -26.1°
Sets 23:49:33 0° 32° (NNE) 2,884 7.2 -26.1°
